Location: Asheville, NC
(35.6000°N, 82.5500°W)
Time: 02:45:12
(UTC-05:00)

UWE-3 - Pass Details

Date: 15 February 2018
Orbit: 586 x 684 km, 97.6° (Epoch: 18 February)

Event Time Altitude Azimuth Distance (km) Brightness Sun altitude
Rises 20:32:37 0° 211° (SSW) 3,025 ? -29.1°
Reaches altitude 10° 20:35:52 10° 235° (SW) 2,120 ? -29.8°
Maximum altitude 20:38:21 14° 268° (W) 1,849 ? -30.3°
Drops below altitude 10° 20:40:50 10° 300° (WNW) 2,125 ? -30.8°
Sets 20:44:07 0° 325° (NW) 3,038 ? -31.4°
